Content
SEND FEEDBACK

Daily
Averages
Monthly
Summary
United States of America

DOVE, TENNESSEE


Home > North America > United States > Tennessee
Elevation: 472 feet     Latitude: 36 28N     Longitude: 087 51W

WEATHER
 
SELECT A DAY
Number of Records: 130,242;   Date Range: 4/10/01 - 8/12/14
 
SHARE

PRINT THIS DATA

[ ← Previous Day ]
WEATHER ALMANAC - FEBRUARY 13, 2013
[ Next Day → ]
[ °C ]   °F
Weather ElementAverageHighLow
Temperature38.4 °F43 °F (1:52 am)33.1 °F (11:52 pm)
Dewpoint34.3 °F36 °F (3:52 am)32 °F (8:11 pm)
Humidity85.3 %96 % (11:52 pm)68 % (1:52 am)
Barometer29.88 in30.00 in (10:52 pm)29.78 in (2:52 am)
Wind Speed9.2 mph16.1 mph (8:43 am)
Wind Gust20.7 mph (5:45 am)
Weather ElementAverage
Visibility7.9 mi
Wind DirectionSW (221.1 °)

Weather ElementTotal
Precipitation0.21 in
Heating Degree Days27 (Base 65)
Averaged from 35 records on February 13, 2013
WEATHER CONDITIONS BREAKOUT
WIND DIRECTION BREAKOUT
WEATHER BY HOUR - FEBRUARY 13, 2013
[ °C ]   °F
Local TimeTemperatureDewpointHumidityBarometerVisibilityWind DirectionWind SpeedGust SpeedPrecipitationEventsConditions
1:52 AM43.0 °F33.1 °F68 %29.79 in10.0 miNNE (30°)5.8 mph0.00 inOvercast
2:52 AM41.0 °F35.1 °F79 %29.78 in8.0 miNorth (10°)8.1 mph0.02 inRainLight Rain
3:52 AM39.9 °F36.0 °F86 %29.79 in5.0 miNNW (340°)6.9 mph0.02 inRainLight Rain
4:25 AM39.2 °F35.6 °F87 %29.79 in8.0 miNNW (340°)12.7 mph0.02 inRainLight Rain
4:52 AM39.0 °F34.0 °F82 %29.78 in7.0 miNorth (360°)15.0 mph0.04 inRainLight Rain
5:27 AM39.2 °F35.6 °F87 %29.78 in6.0 miNorth (360°)15.0 mph0.01 inRainLight Rain
5:36 AM39.2 °F35.6 °F87 %29.79 in6.0 miNorth (10°)15.0 mph0.01 inRainLight Rain
5:45 AM37.4 °F35.6 °F93 %29.78 in5.0 miNNE (20°)13.8 mph20.7 mph0.02 inRainLight Rain
5:52 AM37.9 °F35.1 °F89 %29.78 in6.0 miNNE (20°)12.7 mph20.7 mph0.02 inRainLight Rain
6:22 AM37.4 °F35.6 °F93 %29.80 in6.0 miNNE (20°)11.5 mph0.01 inRainLight Rain
6:52 AM37.9 °F35.1 °F89 %29.81 in7.0 miNorth (10°)10.4 mph0.01 inRainLight Rain
7:52 AM37.9 °F35.1 °F89 %29.83 in4.0 miNorth (350°)15.0 mph0.00 inRainLight Rain
8:35 AM37.4 °F35.6 °F93 %29.85 in4.0 miNorth (350°)13.8 mph0.01 inRainLight Rain
8:43 AM37.4 °F33.8 °F87 %29.86 in4.0 miNorth (350°)16.1 mph0.01 inOvercast
8:52 AM37.9 °F35.1 °F89 %29.87 in4.0 miNorth (350°)12.7 mph0.01 inRainLight Rain
9:09 AM37.4 °F35.6 °F93 %29.86 in3.0 miNorth (350°)9.2 mph0.00 inOvercast
9:52 AM39.0 °F36.0 °F89 %29.87 in6.0 miNorth (10°)11.5 mph0.00 inOvercast
10:52 AM39.0 °F35.1 °F86 %29.91 in9.0 miNNW (340°)11.5 mph0.00 inOvercast
11:52 AM37.9 °F34.0 °F86 %29.93 in10.0 miNNW (340°)13.8 mph0.00 inOvercast
12:52 PM37.9 °F34.0 °F86 %29.92 in10.0 miNNW (330°)11.5 mphOvercast
1:45 PM39.2 °F33.8 °F81 %29.91 in10.0 miNNW (330°)9.2 mphOvercast
1:52 PM39.0 °F34.0 °F82 %29.91 in10.0 miNNW (330°)5.8 mphOvercast
2:33 PM39.2 °F33.8 °F81 %29.91 in10.0 miNW (310°)6.9 mphOvercast
2:52 PM41.0 °F34.0 °F76 %29.92 in10.0 miWNW (290°)6.9 mphOvercast
3:52 PM41.0 °F34.0 °F76 %29.93 in10.0 miSW (230°)3.5 mphMostly Cloudy
4:52 PM42.1 °F34.0 °F73 %29.93 in10.0 miSouth (190°)4.6 mphOvercast
5:50 PM39.2 °F33.8 °F81 %29.94 in10.0 miSW (220°)3.5 mphScattered Clouds
5:52 PM39.9 °F33.1 °F77 %29.95 in10.0 miSW (220°)3.5 mphScattered Clouds
6:52 PM37.9 °F33.1 °F83 %29.96 in10.0 miSSW (210°)3.5 mphMostly Cloudy
7:52 PM37.0 °F33.1 °F86 %29.97 in10.0 miSouth (190°)4.6 mphMostly Cloudy
8:11 PM35.6 °F32.0 °F87 %29.96 in10.0 miSouth (190°)5.8 mphScattered Clouds
8:52 PM36.0 °F32.0 °F86 %29.99 in10.0 miSouth (190°)5.8 mphClear
9:52 PM35.1 °F33.1 °F92 %29.99 in10.0 miSouth (180°)4.6 mphClear
10:52 PM35.1 °F33.1 °F92 %30.00 in10.0 miSouth (180°)4.6 mphClear
11:52 PM33.1 °F32.0 °F96 %30.00 in8.0 miSouth (190°)5.8 mphClear
Hourly data recorded from KCKV, located miles away from Dove, Tennessee







STORIES FROM OUR PARTNERS